Regional Weather Roundup
Issued by NWS

Home | Current Version | Previous Version | Graphics & Text | Print | Product List | Glossary On
Versions: 1 2 3 4 5 6 7 8 9 10 11 12 13 14 15 16 17 18 19 20 21 22 23 24 25 26 27 28 29 30 31 32 33 34 35 36 37 38 39 40 41 42 43 44 45 46 47 48 49 50
000
ASUS43 KLOT 282309
RWRIL

ILLINOIS REGIONAL WEATHER ROUNDUP
NATIONAL WEATHER SERVICE CHICAGO/ROMEOVILLE IL
600 PM CDT SUN MAY 28 2017

NOTE: "FAIR" INDICATES FEW OR NO CLOUDS BELOW 12,000 FEET WITH NO
SIGNIFICANT WEATHER AND/OR OBSTRUCTIONS TO VISIBILITY.

* THESE STATIONS ARE NOT UNDER NWS QUALITY CONTROL. THEY ALSO MAY NOT
  REPORT WEATHER SUCH AS PRECIPITATION OR FOG.

ILZ001-002-007-009-015-016-024-290000-
NORTHWEST ILLINOIS

CITY           SKY/WX    TMP DP  RH WIND       PRES   REMARKS
MOLINE         SUNNY     76  46  34 W17G24    29.78R
STERLING*      MOSUNNY   75  51  43 W14       29.76S
SAVANNA*       MOSUNNY   75  46  35 NW17G23   29.76R
$$

ILZ003-004-008-010-011-017-018-290000-
NORTH CENTRAL ILLINOIS

CITY           SKY/WX    TMP DP  RH WIND       PRES   REMARKS
ROCKFORD       MOSUNNY   76  49  38 NW15      29.74S
FREEPORT*      MOSUNNY   73  46  38 W16       29.77R
ROCHELLE*      MOSUNNY   74  50  42 W20G30    29.76S
DE KALB*       MOSUNNY   73  54  52 W14G24    29.75S
PERU*          CLOUDY    74  55  50 W13       29.77S
$$

ILZ005-006-012>014-019>023-290000-
NORTHEAST ILLINOIS

CITY           SKY/WX    TMP DP  RH WIND       PRES   REMARKS
CHICAGO-OHARE  MOSUNNY   75  52  44 W14       29.73S
CHICAGO-MIDWAY MOSUNNY   76  52  43 W12       29.73S
AURORA         PTSUNNY   75  53  46 W16G23    29.75S
LANSING*       MOSUNNY   75  58  56 NW8       29.74S
JOLIET*        MOSUNNY   77  53  43 W8        29.75F
WAUKEGAN       MOSUNNY   73  54  51 VRB3      29.71S
DUPAGE AIRPORT MOSUNNY   74  54  49 W15       29.73F
KANKAKEE*      SUNNY     78  49  35 W15       29.76F
WHEELING       SUNNY     75  52  44 NW13      29.74S
MORRIS*        SUNNY     76  52  42 W13       29.74S
ROMEOVILLE*    MOSUNNY   76  57  51 W15       29.75S
NORTHERLY ISL    N/A     60  55  83 E3          N/A
$$

LMZ740>746-290000-
SOUTHERN LAKE MICHIGAN

STATION/POSITION SKY/WX   TEMP    WIND        PRES    VSBY  WAVE
                          AIR SEA DIR/SP/G                  HT/PER
                          (F)     (DEG/KT/KT) (MB)    (MI)  (FT/S)
SOUTHERN BUOY              52 50  210/  2/  2 1006.6          0
WILMETTE HARBOR            55 56  150/  6/  8   N/A           0
HARRISON CRIB              61     140/  8/  9   N/A
BURNHAM HARBOR             60     110/  2/  5   N/A
CALUMET HARBOR             62      60/  5/  5 1007.0R
BURNS HARBOR               60     300/  2/  3 1008.1R
MICHIGAN CITY              59     270/  3/  3   N/A
MICHIGAN CITY 6N           57 58  270/  4/  4   N/A           1
ST. JOSEPH                 60 61  250/  2/  4 1007.4          1
$$

ILZ025>027-034>036-040-047-049-050-058-095>099-290000-
WEST-CENTRAL ILLINOIS

CITY           SKY/WX    TMP DP  RH WIND       PRES   REMARKS
QUINCY         MOSUNNY   77  51  40 W15       29.83F
GALESBURG*     MOSUNNY   76  46  34 W14G25    29.81R
MACOMB*        SUNNY     78  48  34 W20G30    29.83S
JACKSONVILLE*  MOSUNNY   78  51  38 W9        29.83F
PITTSFIELD*    MOSUNNY   78  54  43 W7        29.86S
$$

ILZ028>032-037-038-041>044-048-051>054-059>061-290000-
CENTRAL ILLINOIS

CITY           SKY/WX    TMP DP  RH WIND       PRES   REMARKS
PONTIAC        MOSUNNY   77  51  40 W12G18    29.78S
BLOOMINGTON    PTSUNNY   76  52  43 NW13      29.81S
DECATUR        SUNNY     78  50  37 NW16      29.81S
PEORIA         MOSUNNY   79  52  38 W15G22    29.79S
LACON*         MOSUNNY   75  53  46 W10G16    29.77S
LINCOLN*       MOSUNNY   79  54  42 W5        29.80F
SPRINGFIELD    SUNNY     81  53  37 W10       29.82F HX  80
TAYLORVILLE    SUNNY     78  52  39 W15       29.83S
$$

ILZ033-039-045-046-055>057-062-063-290000-
EAST-CENTRAL ILLINOIS

CITY           SKY/WX    TMP DP  RH WIND       PRES   REMARKS
CHAMPAIGN      MOSUNNY   78  50  37 NW16      29.80R
RANTOUL*       MOSUNNY   79  53  40 W16       29.78S
MATTOON        MOSUNNY   77  56  48 W21       29.80R
PARIS*         PTSUNNY   77  60  57 NW17G23   29.79R
$$

ILZ079-100>102-290000-
SOUTHWEST ILLINOIS

CITY           SKY/WX    TMP DP  RH WIND       PRES   REMARKS
ALTON          MOSUNNY   77  55  47 W14       29.86S
BELLEVILLE     SUNNY     78  57  48 NW17      29.87R
CAHOKIA*       MOSUNNY   80  54  40 NW9       29.86S HX  80
SPARTA*        PTSUNNY   76  62  60 W9G16     29.88S
$$

ILZ064>066-069>071-074>076-080>082-084>086-088>090-092>094-290000-
SOUTH-CENTRAL ILLINOIS

CITY           SKY/WX    TMP DP  RH WIND       PRES   REMARKS
CARBONDALE     PTSUNNY   76  64  66 W10       29.87R
CAIRO*         DRIZZLE   72  68  89 W6        29.89R
EFFINGHAM*     MOSUNNY   78  62  58 W12       29.84S HX  80
MARION         MOSUNNY   77  64  65 NW9       29.88R
MT. VERNON       N/A     75  64  68 VRB7      29.86S
CENTRALIA*     PTSUNNY   77  64  65 W13       29.85R
SALEM*         CLOUDY    77  62  61 W9        29.85R
METROPOLIS*    LGT RAIN  71  68  90 W5        29.90R
$$

ILZ067-068-072-073-078-083-087-091-290000-
SOUTHEAST ILLINOIS

CITY           SKY/WX    TMP DP  RH WIND       PRES   REMARKS
LAWRENCEVILLE  MOSUNNY   76  65  68 W15       29.82S
FLORA*         MOSUNNY   78  66  66 W10       29.84S HX  80
FAIRFIELD*     MOSUNNY   74  64  69 W6        29.84S
HARRISBURG*    SUNNY     77  64  63 W10       29.87R
ROBINSON*      MOSUNNY   77  64  65 W15       29.81S
CARMI*         MOSUNNY   76  64  66 W12       29.84S
$$

ABBREVIATIONS USED IN REMARKS
   TC - TEMPERATURE IN CELSIUS
  WCI - WIND CHILL INDEX
   HX - HEAT INDEX
  VSB - VISIBILITY
$$





USA.gov is the U.S. government's official web portal to all federal, state and local government web resources and services.